Location: ?ejeti?ky
(50.4060°N, 14.9016°E)
Time: 20:56:01
(UTC+00:00)

STARLINK-1379 - Pass Details

Date: 07 June 2020
Orbit: 548 x 551 km, 53.0° (Epoch: 04 July)

Event Time Altitude Azimuth Distance (km) Brightness Sun altitude
Rises 01:11:31 0° 287° (WNW) 2,718 7.0 -11.2°
Reaches altitude 10° 01:13:46 10° 289° (WNW) 1,823 6.2 -11.0°
Maximum altitude 01:17:54 76° 15° (NNE) 570 3.8 -10.7°
Drops below altitude 10° 01:22:02 10° 102° (ESE) 1,817 6.5 -10.3°
Sets 01:24:16 0° 104° (ESE) 2,708 7.4 -10.1°
